Location: Newark
(16.3678°N, 77.8722°E)
Time: 04:38:17
(UTC+00:00)

A-11 Canister half - All Passes

Search period start: 07 December 2019 00:00
Search period end: 17 December 2019 00:00
Orbit: 1515 x 1685 km, 47.2° (Epoch: 05 December)

Date Brightness Start Highest point End Pass type
(mag) Time Alt. Az. Time Alt. Az. Time Alt. Az.
07 Dec - 05:07:01 10° SSW 05:16:13 62° SE 05:25:43 10° NE daylight
07 Dec - 07:13:05 10° W 07:21:24 34° NW 07:30:03 10° NNE daylight
07 Dec - 13:40:07 10° NNW 13:48:39 30° NE 13:57:07 10° E visible
07 Dec - 15:44:05 10° NW 15:54:14 76° SW 16:04:12 10° SE visible
07 Dec - 17:54:07 10° W 17:58:38 14° SW 18:03:07 10° SSW night (unlit)
08 Dec - 04:44:14 10° SSW 04:53:19 57° SE 05:02:42 10° NE daylight
08 Dec - 06:49:56 10° WSW 06:58:24 36° NW 07:07:12 10° NNE daylight
08 Dec - 09:04:36 10° NNW 09:06:19 10° NNW 09:08:03 10° N daylight
08 Dec - 13:17:18 10° NNW 13:25:35 28° NE 13:33:50 10° E visible
08 Dec - 15:21:06 10° NW 15:31:18 81° SW 15:41:19 10° SE visible
08 Dec - 17:30:20 10° W 17:35:43 16° SW 17:41:03 10° SSW visible
09 Dec - 04:21:28 10° SSW 04:30:26 53° SE 04:39:39 10° NE daylight
09 Dec - 06:26:49 10° WSW 06:35:24 39° NW 06:44:20 10° NNE daylight
09 Dec - 08:40:35 10° NW 08:43:07 11° NNW 08:45:41 10° N daylight
09 Dec - 12:54:29 10° NNW 13:02:31 26° NE 13:10:32 10° E visible
09 Dec - 14:58:08 10° NW 15:08:21 87° SW 15:18:25 10° SE visible
09 Dec - 17:06:42 10° W 17:12:47 18° SW 17:18:50 10° SSW visible
10 Dec - 03:58:44 10° SSW 04:07:33 48° SE 04:16:36 10° ENE daylight
10 Dec - 06:03:42 10° WSW 06:12:26 41° NW 06:21:29 10° NNE daylight
10 Dec - 08:16:47 10° NW 08:19:57 12° NNW 08:23:09 10° N daylight
10 Dec - 12:31:41 10° NNW 12:39:27 24° NE 12:47:12 10° E visible
10 Dec - 14:35:11 10° NW 14:45:24 88° NE 14:55:31 10° SE visible
10 Dec - 16:43:12 10° W 16:49:52 20° SW 16:56:30 10° SSW visible
11 Dec - 03:36:01 10° SSW 03:44:40 44° SE 03:53:32 10° ENE daylight
11 Dec - 05:40:38 10° WSW 05:49:27 44° NW 05:58:36 10° NNE daylight
11 Dec - 07:53:05 10° NW 07:56:47 12° NNW 08:00:31 10° N daylight
11 Dec - 12:08:53 10° NNW 12:16:21 23° NNE 12:23:50 10° E daylight
11 Dec - 14:12:14 10° NW 14:22:28 82° NE 14:32:34 10° SE visible
11 Dec - 16:19:47 10° W 16:26:57 22° SW 16:34:05 10° S visible
12 Dec - 03:13:20 10° SSW 03:21:48 40° SE 03:30:26 10° ENE daylight
12 Dec - 05:17:34 10° WSW 05:26:29 48° NW 05:35:44 10° NNE daylight
12 Dec - 07:29:28 10° NW 07:33:38 13° NNW 07:37:52 10° N daylight
12 Dec - 11:46:07 10° NNW 11:53:16 21° NNE 12:00:26 10° ENE daylight
12 Dec - 13:49:18 10° NW 13:59:30 77° NE 14:09:36 10° SE visible
12 Dec - 15:56:26 10° WNW 16:04:03 24° SW 16:11:36 10° S visible
13 Dec - 02:50:40 10° S 02:58:55 37° SE 03:07:20 10° ENE daylight
13 Dec - 04:54:32 10° WSW 05:03:32 52° NW 05:12:52 10° NNE daylight
13 Dec - 07:05:53 10° NW 07:10:29 14° NNW 07:15:10 10° N daylight
13 Dec - 11:23:20 10° NNW 11:30:10 20° NNE 11:37:00 10° ENE daylight
13 Dec - 13:26:24 10° NW 13:36:32 71° NE 13:46:37 10° SE visible
13 Dec - 15:33:08 10° WNW 15:41:08 27° SW 15:49:05 10° S visible
14 Dec - 02:28:02 10° S 02:36:03 33° SE 02:44:11 10° ENE daylight
14 Dec - 04:31:31 10° WSW 04:40:35 56° NW 04:49:58 10° NNE daylight
14 Dec - 06:42:22 10° WNW 06:47:21 15° NNW 06:52:27 10° N daylight
14 Dec - 11:00:36 10° N 11:07:03 18° NNE 11:13:32 10° ENE daylight
14 Dec - 13:03:29 10° NW 13:13:34 67° NE 13:23:36 10° SE visible
14 Dec - 15:09:52 10° WNW 15:18:12 30° SW 15:26:30 10° S visible
15 Dec - 02:05:25 10° S 02:13:10 30° SE 02:21:01 10° ENE daylight
15 Dec - 04:08:31 10° WSW 04:17:38 60° NW 04:27:05 10° NE daylight
15 Dec - 06:18:53 10° WNW 06:24:14 16° NNW 06:29:43 10° N daylight
15 Dec - 10:37:51 10° N 10:43:55 17° NNE 10:50:02 10° ENE daylight
15 Dec - 12:40:35 10° NW 12:50:36 62° NE 13:00:35 10° SE visible
15 Dec - 14:46:40 10° WNW 14:55:18 32° SW 15:03:53 10° S visible
16 Dec - 01:42:51 10° S 01:50:19 28° SE 01:57:50 10° ENE daylight
16 Dec - 03:45:32 10° SW 03:54:43 65° NW 04:04:11 10° NE daylight
16 Dec - 05:55:26 10° WNW 06:01:08 17° NNW 06:06:58 10° N daylight
16 Dec - 10:15:09 10° N 10:20:48 16° NNE 10:26:29 10° ENE daylight
16 Dec - 12:17:42 10° NNW 12:27:36 58° NE 12:37:32 10° ESE daylight
16 Dec - 14:23:29 10° WNW 14:32:22 35° SW 14:41:15 10° S visible
